Weather Roundup
Issued by NWS Chicago, IL

Home | Current Version | Previous Version | Graphics & Text | Print | Product List | Glossary On
Versions: 1 2 3 4 5 6 7 8 9 10 11 12 13 14 15 16 17 18 19 20 21 22 23 24 25 26 27 28 29 30 31 32 33 34 35 36 37 38 39 40 41 42 43 44 45 46 47 48 49 50
000
NZUS59 KLOT 180608
HRRLOT

CHICAGO AREA WEATHER ROUNDUP
NATIONAL WEATHER SERVICE CHICAGO/ROMEOVILLE IL
1200 AM CST SAT NOV 18 2017

NOTE: "FAIR" INDICATES FEW OR NO CLOUDS BELOW 12,000 FEET WITH NO
SIGNIFICANT WEATHER AND/OR OBSTRUCTIONS TO VISIBILITY.

* THESE STATIONS ARE NOT UNDER NWS QUALITY CONTROL. THEY ALSO MAY NOT
  REPORT WEATHER SUCH AS PRECIPITATION OR FOG.

ILZ005-006-012>014-019>023-180700-
NORTHEAST ILLINOIS

CITY           SKY/WX    TMP DP  RH WIND       PRES   REMARKS
OHARE          CLOUDY    48  45  89 SW8       29.55F FOG
6HR MIN TEMP:  42; 6HR MAX TEMP:  48; 6HR PCP:  0.11;

MIDWAY         DRIZZLE   48  47  96 SW9       29.56F FOG
6HR MIN TEMP:  43; 6HR MAX TEMP:  48; 6HR PCP:  0.16;

AURORA         CLOUDY    48  47  96 SW8       29.56F FOG
6HR MIN TEMP:  42; 6HR MAX TEMP:  48; 6HR PCP:  0.08;

LANSING*       DRIZZLE   47  46  97 SW10      29.58F
JOLIET*        CLOUDY    49  47  92 SW5       29.56F
WAUKEGAN       LGT RAIN  44  44 100 NW3       29.58S FOG
6HR MIN TEMP:  42; 6HR MAX TEMP:  45; 6HR PCP:  0.18;

DUPAGE AIRPORT CLOUDY    46  46 100 S6        29.55S FOG
6HR MIN TEMP:  40; 6HR MAX TEMP:  46; 6HR PCP:  0.12;

WHEELING       LGT RAIN  47  47 100 NW5       29.59R FOG
6HR MIN TEMP:  43; 6HR MAX TEMP:  47; 6HR PCP:  0.10;

KANKAKEE*      CLOUDY    48  44  85 S14G20    29.57F
MORRIS*        CLOUDY    49  46  90 SW5       29.55S
LEWIS AIRPORT* CLOUDY    47  46  93 SW7       29.56F FOG
NORTHERLY ISL    N/A     47  44  90 SW3         N/A
$$

WIZ051-052-058>065-066-070>072-180700-
SOUTHEAST WISCONSIN

CITY           SKY/WX    TMP DP  RH WIND       PRES   REMARKS
MILWAUKEE      CLOUDY    43  42  97 NW3       29.58S FOG
6HR MIN TEMP:  42; 6HR MAX TEMP:  43; 6HR PCP:  0.27;

KENOSHA*       LGT RAIN  44  42  93 W3        29.57F FOG
RACINE*        CLOUDY    43  43 100 CALM      29.59F FOG
BURLINGTON     FOG       43  43 100 CALM      29.58R VSB 1
WAUKESHA       CLOUDY    37  37 100 W6        29.59S FOG
WEST BEND      CLOUDY    37  37 100 NW6       29.58S FOG
$$

INZ001>003-010>013-019-020-180700-
NORTHWEST INDIANA

CITY           SKY/WX    TMP DP  RH WIND       PRES   REMARKS
GARY*          DRIZZLE   48  46  90 S6        29.58F
6HR MIN TEMP:  43; 6HR MAX TEMP:  49; 6HR PCP:  0.31;

MICHIGAN CITY* NOT AVBL
RENSSELAER*    NOT AVBL
VALPARAISO     LGT RAIN  46  43  89 SE5       29.59F FOG
$$

LMZ740>746-180700-
SOUTHERN LAKE MICHIGAN

STATION/POSITION TIME  SKY/WX   TEMP WIND        PRES    VSBY
                                AIR  DIR/SP/G
                 (UTC)          (F)  (DEG/KT/KT) (MB)    (MI)
HARRISON CRIB    0540            48  220/ 18/ 21   N/A
BURNHAM HARBOR   0600            47  230/  2/ 10   N/A
CALUMET HARBOR   NOT AVBL
BURNS HARBOR     0540            46  200/ 11/ 15 1002.4F
MICHIGAN CITY    0540            44  170/ 10/ 14   N/A
$$

ABBREVIATIONS USED IN REMARKS
   TC - TEMPERATURE IN CELSIUS
  WCI - WIND CHILL INDEX
   HX - HEAT INDEX
  VSB - VISIBILITY
$$




USA.gov is the U.S. government's official web portal to all federal, state and local government web resources and services.